This is the latest recevied weather packets stored in our database for station/object IZ5MJO-13. If no packets are shown the sender has not sent any weather packets the latest 10 day(s).
| Time | Temp. | Humidity | Pressure | Rain* | Wind** | Luminosity | Snow |
|---|---|---|---|---|---|---|---|
| 1777835627 | 15.56° C | 42% | 1007.9 hPa | - | - | - | - |
| 1777834727 | 16.11° C | 38% | 1007.9 hPa | - | - | - | - |
| 1777833827 | 16.67° C | 36% | 1007.7 hPa | - | - | - | - |
| 1777832926 | 16.67° C | 35% | 1007.7 hPa | - | - | - | - |
| 1777832026 | 17.22° C | 31% | 1007.6 hPa | - | - | - | - |
| 1777831126 | 17.78° C | 31% | 1007.5 hPa | - | - | - | - |
| 1777830226 | 18.33° C | 30% | 1007.4 hPa | - | - | - | - |
| 1777829325 | 19.44° C | 31% | 1007.2 hPa | - | - | - | - |
| 1777828425 | 20° C | 31% | 1007.3 hPa | - | - | - | - |
| 1777827525 | 21.67° C | 29% | 1007.3 hPa | - | - | - | - |
| 1777826625 | 23.33° C | 29% | 1007.3 hPa | - | - | - | - |
| 1777825725 | 25° C | 28% | 1007.2 hPa | - | - | - | - |
| 1777825197 | 25.56° C | 28% | 1007.2 hPa | - | - | - | - |
| 1777825190 | 24.44° C | 30% | 1007.3 hPa | - | - | - | - |
| 1777825183 | 24.44° C | 29% | 1007.3 hPa | - | - | - | - |
| 1777825176 | 26.11° C | 30% | 1007.4 hPa | - | - | - | - |
| 1777825169 | 25° C | 31% | 1007.5 hPa | - | - | - | - |
| 1777825162 | 26.11° C | 31% | 1007.7 hPa | - | - | - | - |
| 1777825148 | 26.11° C | 30% | 1008.1 hPa | - | - | - | - |
| 1777824825 | 25.56° C | 28% | 1007.2 hPa | - | - | - | - |
| 1777823924 | 24.44° C | 30% | 1007.3 hPa | - | - | - | - |
| 1777823024 | 24.44° C | 29% | 1007.3 hPa | - | - | - | - |
| 1777822123 | 26.11° C | 30% | 1007.4 hPa | - | - | - | - |
| 1777821223 | 25° C | 31% | 1007.5 hPa | - | - | - | - |
| 1777820323 | 26.11° C | 31% | 1007.7 hPa | - | - | - | - |
* Rain since midnight (hover to see other rain measurements)
** Current wind speed in m/s (hover to see current wind gust speed)